Location: Chalais
(46.9714°N, 0.0875°E)
Time: 19:02:55
(UTC+00:00)

Daily predictions for brighter satellites

Satellite Brightness Start Highest point End
(mag) Time Altitude Azimuth Time Altitude Azimuth Time Altitude Azimuth
Geosat 4.4 20:26:16 10° SE 20:31:09 54° NE 20:36:03 10° NNW
Spot 2 Rocket 4.3 20:27:58 10° SE 20:32:35 38° ENE 20:37:15 10° N
NOSS 3-2 (C) 4.1 20:30:39 10° S 20:35:22 29° ESE 20:40:35 10° NE
OBJECT-B 3.5 20:34:24 10° SW 20:36:41 18° W 20:38:59 10° NW
NOSS 3-2 (A) 3.5 20:31:55 10° SSW 20:37:15 50° ESE 20:43:21 10° NE
Cosmos 332 Rocket 4.2 20:35:23 10° SSW 20:40:11 69° WNW 20:45:00 10° NNE
Cosmos 1726 2.9 20:37:19 10° N 20:40:43 35° ENE 20:44:04 10° SE
Okean 2 4.0 20:37:17 10° SSE 20:41:06 39° E 20:44:56 10° NNE
Cosmos 1605 Rocket 4.2 20:36:19 10° N 20:42:41 60° ENE 20:48:58 10° SSE
Cosmos 1842 3.3 20:39:38 10° S 20:43:31 64° E 20:47:26 10° NNE
Meteor 2-10 4.0 20:38:42 10° N 20:43:44 67° ENE 20:48:47 10° SSE
Cosmos 1766 3.7 20:40:01 10° NNW 20:43:50 63° W 20:47:39 10° S
Cosmos 1315 Rocket 3.7 20:40:56 10° N 20:44:50 38° ENE 20:48:41 10° SE
ERS-1 Rocket 3.8 20:45:26 10° SE 20:50:01 37° ENE 20:54:37 10° N
Aureole 2 Rocket 2.7 20:48:14 10° NW 20:50:35 37° WSW 20:52:51 10° S
IGS 5A 3.9 20:47:11 10° S 20:51:18 63° W 20:55:27 10° NNW
Cosmos 1470 2.9 20:52:05 10° N 20:56:03 61° E 20:59:55 10° SSE
Okean 1 Rocket 3.2 20:51:56 10° N 20:56:16 62° ENE 21:00:35 10° SSE
MetOp-B 4.3 20:53:24 10° SSE 20:58:45 81° WSW 21:04:09 10° NNW
Cosmos 676 Rocket 4.2 20:53:37 10° NNW 20:58:56 65° ENE 21:03:54 12° SSE
Cosmos 1758 3.9 20:56:39 10° N 21:00:29 43° ENE 21:03:50 13° SSE
SL-16 R/B 2.9 20:56:22 10° S 21:01:26 35° ESE 21:06:32 10° NE
Cosmos 1697 Rocket 4.2 20:56:34 10° SW 21:01:52 42° NW 21:07:12 10° NNE
Cosmos 2227 4.3 20:57:09 10° NNW 21:02:48 75° ENE 21:07:57 12° SSE
SPOT 5 3.5 20:58:02 11° SE 21:02:51 47° ENE 21:07:41 10° N
Cosmos 1954 Rocket 4.1 20:57:40 10° NNW 21:03:01 72° ENE 21:07:54 12° SSE
Cosmos 1455 Rocket 4.4 20:59:38 10° NNE 21:03:23 26° ENE 21:06:42 12° SE
Cosmos 2278 3.9 21:01:14 10° SSW 21:06:56 78° WNW 21:12:39 10° NNE
Cosmos 2322 Rocket 3.0 21:02:21 10° SSE 21:07:16 31° ESE 21:12:12 10° NE
Cosmos 2360 Rocket 3.6 21:06:00 12° SE 21:09:07 19° E 21:12:55 10° ENE
SWAS 4.4 21:05:09 10° SSW 21:09:27 85° ESE 21:13:46 10° NNE
USA 238 DEB 3.6 21:03:53 10° SSW 21:10:19 66° ESE 21:17:07 10° NE
USA 238 3.6 21:04:00 10° SSW 21:10:25 65° ESE 21:17:13 10° NE
USA 215 3.7 21:04:35 10° ENE 21:10:36 38° SE 21:16:35 10° SSW
CZ-2C R/B 3.9 21:08:33 10° NNE 21:13:19 83° WNW 21:18:06 10° SSW
Resurs 01 Rocket 3.0 21:09:23 10° SSW 21:13:28 36° W 21:17:33 10° NNW
Cosmos 1378 Rocket 3.7 21:10:25 10° SSW 21:14:44 76° W 21:19:07 10° N
SL-8 R/B 3.9 21:11:54 10° W 21:16:43 74° N 21:21:31 10° E
BREEZE-M DEB (TANK) 3.0 21:16:00 10° SSW 21:18:17 34° SE 21:22:29 10° ENE
Lacrosse 5 2.1 21:13:32 10° NW 21:18:37 68° NE 21:23:12 13° ESE
Genesis I 3.9 21:17:09 10° S 21:20:36 33° ESE 21:24:09 10° NE
Cosmos 1624 Rocket 4.2 21:15:18 10° SSW 21:20:37 76° WNW 21:25:57 10° NNE
Meteor 2-20 4.4 21:18:14 10° S 21:24:21 82° E 21:30:28 10° N
Cosmos 1626 3.8 21:24:21 15° ESE 21:25:47 18° E 21:28:22 10° NE
Cosmos 1980 Rocket 3.3 21:22:49 10° SW 21:28:16 48° NW 21:33:43 10° NNE
Cosmos 1953 3.0 21:28:13 10° N 21:32:07 43° ENE 21:34:36 20° SE
ATLAS CENTAUR R/B 3.9 21:31:11 10° N 21:33:50 16° NNE 21:36:33 10° ENE
Terra 2.0 21:30:59 17° SSE 21:34:31 62° ENE 21:39:14 10° N
SPOT 1/Viking Rocket 4.3 21:29:46 10° S 21:34:42 47° W 21:39:41 10° NNW
CENTAUR R/B 2.5 21:30:31 10° SW 21:36:25 86° SE 21:43:32 10° NE
Cosmos 292 Rocket 3.7 21:33:34 10° SSW 21:38:23 72° ESE 21:43:13 10° NNE
Cosmos 1674 3.0 21:37:32 21° SSE 21:39:43 46° E 21:43:18 10° NNE
Cosmos 220 Rocket 4.2 21:35:47 10° SSW 21:40:06 73° WNW 21:44:24 10° NNE
H-2A R/B 3.9 21:36:15 10° NNE 21:40:09 41° E 21:42:27 21° SSE
Cosmos 1452 Rocket 3.6 21:39:10 11° S 21:44:16 62° ESE 21:49:30 10° NNE
USA 267 3.8 21:38:36 10° ESE 21:44:59 58° NNE 21:51:23 10° NW
CARTOSAT-1 4.2 21:41:40 13° S 21:45:18 51° W 21:49:31 10° NNW
Cosmos 1908 3.5 21:42:26 10° N 21:46:17 53° ENE 21:48:22 24° SE
Cosmos 2100 Rocket 4.1 21:43:07 10° N 21:49:32 76° E 21:54:16 19° SSE
Cosmos 1844 Rocket 3.3 21:45:28 10° NNW 21:50:59 49° ENE 21:55:01 18° SE
Cosmos 1707 3.6 21:48:23 10° SSW 21:52:07 48° WNW 21:55:55 10° N
ARIANE 5 R/B 3.5 21:48:39 14° S 21:52:16 45° W 21:56:35 10° NNW
Cosmos 1975 Rocket 3.0 21:49:03 17° S 21:52:17 79° E 21:56:41 10° NNE
Aureole 1 Rocket 4.2 21:48:34 10° NNW 21:53:45 55° ENE 21:58:28 19° SE
Cosmos 1850 Rocket 4.0 21:49:58 10° NNW 21:55:20 77° ENE 21:58:43 23° SSE
Cosmos 1025 Rocket 3.4 21:55:41 24° SSE 21:58:01 49° E 22:02:15 10° NNE
Cosmos 2333 Rocket 3.5 22:00:00 19° SE 22:01:55 23° ESE 22:06:19 10° NE
Cosmos 2263 Rocket 3.4 21:56:50 10° NW 22:01:57 35° WSW 22:06:17 14° SSW
Meteor 2-11 Rocket 4.4 21:58:19 10° N 22:04:29 79° E 22:08:34 22° SSE
Cosmos 1340 3.5 22:10:26 29° SE 22:11:28 35° E 22:14:56 10° NNE
Cosmos 2173 Rocket 4.1 22:09:27 10° NNW 22:15:49 76° W 22:20:18 21° S
Cosmos 2016 Rocket 3.9 22:11:31 10° N 22:17:38 77° E 22:21:23 25° SSE
Cosmos 1331 Rocket 4.1 22:16:11 24° S 22:19:09 56° ESE 22:24:19 10° NNE
NOSS 8 (A) 4.0 22:19:36 19° SW 22:21:47 88° ESE 22:24:44 10° NE
Cosmos 1844 3.8 22:16:17 10° NNW 22:21:50 68° ENE 22:25:07 25° SE
Cosmos 1741 Rocket 4.2 22:19:39 10° NNW 22:24:52 64° WSW 22:27:44 27° S
NOSS 3-2 (C) 4.0 22:20:06 10° WSW 22:25:43 59° NW 22:32:18 10° NE
Cosmos 1725 Rocket 4.0 22:19:48 10° N 22:26:01 77° E 22:29:40 26° SSE
ALOS 2 4.2 22:25:47 17° ESE 22:27:59 26° ENE 22:31:36 10° N
ERS-1 Rocket 4.3 22:25:10 14° SSW 22:28:50 32° W 22:33:20 10° NNW
Cosmos 1802 Rocket 4.1 22:24:52 10° NNW 22:31:05 74° W 22:35:07 24° S
Cosmos 2219 Rocket 3.0 22:31:32 27° SE 22:33:30 34° ESE 22:38:34 10° NE
Cosmos 1544 Rocket 3.9 22:31:21 10° NNW 22:35:47 62° W 22:37:55 29° SSW
GEOS 3 Rocket 3.8 22:33:47 29° SSE 22:36:31 61° SW 22:41:50 10° NW
Cosmos 1455 Rocket 4.4 22:37:15 10° NNW 22:41:15 33° W 22:43:49 19° SW
Cosmos 389 Rocket 4.0 22:39:16 10° NNE 22:42:04 23° ENE 22:42:52 21° E
ATLAS 3B R/B 3.0 22:39:31 27° S 22:42:33 43° ESE 22:48:50 10° NE
Cosmos 2237 Rocket 4.2 22:41:47 11° ESE 22:42:49 12° E 22:44:50 10° ENE
SL-16 R/B 3.4 22:40:06 10° SW 22:45:27 42° NW 22:50:51 10° NNE
Cosmos 1461 2.8 22:41:35 10° NW 22:45:51 84° WSW 22:47:11 42° SSE
Meteor 2-5 Rocket 3.6 22:47:48 30° S 22:50:36 76° E 22:56:11 10° NNE
Cosmos 2322 Rocket 3.1 22:45:36 10° SW 22:51:06 48° NW 22:56:38 10° NNE
Cosmos 1346 Rocket 3.7 22:51:09 31° ESE 22:51:49 33° E 22:55:26 10° NNE
Cosmos 1900 4.3 22:47:29 10° NNW 22:52:25 77° NE 22:54:40 32° SE
Cosmos 2360 Rocket 2.3 22:47:42 15° SW 22:52:28 74° WNW 22:58:09 10° NNE
COSMOS 2428 3.3 22:50:46 30° SSE 22:52:43 40° ESE 22:58:02 10° NE
USA 215 3.4 22:47:24 10° NE 22:53:57 77° NNW 23:00:29 10° WSW
Lacrosse 5 rocket 2.2 22:57:45 28° E 22:57:45 28° E 23:00:01 10° ENE
Cosmos 2061 Rocket 4.4 22:51:41 10° NNW 22:58:01 60° W 23:01:48 25° SSW
SL-8 R/B 3.6 22:54:35 10° WNW 22:59:25 86° SSW 23:02:46 20° ESE
Cosmos 2322 3.7 22:57:38 31° S 23:00:19 64° ESE 23:05:55 10° NNE
Cosmos 1626 3.6 22:58:50 20° SW 23:00:45 32° WNW 23:04:07 10° N
Lacrosse 5 3.0 22:56:58 10° WNW 23:01:16 28° SW 23:02:23 26° SSW
Cosmos 1536 Rocket 4.0 23:05:04 29° SSW 23:07:10 59° WNW 23:11:36 10° N
Cosmos 1455 3.4 23:05:50 10° N 23:09:19 31° ENE 23:10:18 27° ESE
DNEPR-1 R/B 3.5 23:08:02 10° NW 23:12:17 81° NE 23:13:49 40° SE
Meteor 2-10 Rocket 3.4 23:07:08 10° N 23:12:20 81° E 23:14:19 38° SSE
Cosmos 2278 Rocket 3.2 23:07:18 10° NNW 23:12:38 40° NE 23:16:33 17° ESE
Terra 4.0 23:09:52 11° SW 23:12:41 17° W 23:15:46 10° NW
ATLAS CENTAUR R/B 1.6 23:09:06 10° NW 23:13:24 71° NE 23:15:12 35° SE
Cosmos 1300 3.4 23:10:30 10° NNW 23:14:08 43° W 23:15:05 35° SW
Cosmos 405 4.1 23:14:38 10° NNW 23:17:45 32° W 23:18:19 30° WSW
SAR-Lupe-2 4.3 23:17:53 10° NNE 23:21:17 38° E 23:21:26 38° ESE
Cosmos 1992 Rocket 4.4 23:26:26 37° SSE 23:27:59 48° ESE 23:33:01 10° NNE
USA 267 3.3 23:24:45 30° SSE 23:28:01 59° SW 23:34:29 10° WNW
CENTAUR R/B 4.5 23:22:20 10° W 23:28:01 32° NNW 23:34:38 10° NE
Cosmos 968 Rocket 3.4 23:27:00 10° NNW 23:32:08 79° WSW 23:33:58 40° S
Cosmos 1844 Rocket 3.9 23:29:47 10° NW 23:34:38 30° WSW 23:36:40 24° SW
Cosmos 1891 Rocket 4.5 23:34:38 10° N 23:40:46 78° E 23:43:40 34° SSE
COBE Rocket 4.3 23:41:58 36° SSW 23:43:48 55° W 23:48:45 10° NNW
Cosmos 2058 Rocket 3.2 23:41:08 10° N 23:45:36 67° E 23:46:54 43° SE
Cosmos 2333 Rocket 2.6 23:41:58 22° SW 23:45:43 63° WNW 23:51:25 10° NNE
GP-B 4.4 23:42:43 10° NNE 23:46:40 30° E 23:48:05 25° ESE
Cosmos 2228 3.6 23:43:28 10° NNW 23:47:42 46° W 23:48:51 37° SW
Cosmos 967 Rocket 4.4 23:41:44 10° NW 23:48:07 85° WSW 23:51:29 30° SSE
Cosmos 1513 Rocket 4.4 23:43:04 10° N 23:49:09 86° E 23:51:56 35° S
Cosmos 1980 4.2 23:49:19 34° SSE 23:51:08 46° ESE 23:56:32 10° NE
Cosmos 1441 Rocket 4.0 23:50:46 37° ESE 23:51:17 39° E 23:54:54 10° NNE
Cosmos 1867 3.6 23:48:43 10° NW 23:54:15 82° NE 23:57:05 30° SE
